GW1761 Weather Reports


Display with metric or nautical units.
time (UTC)temp
F
wind
direction
speed
MPH
gust
MPH
rain 1hr
in
rain 24hr
in
rain mn
in
humidity
%
barometer
mb
20260507143030 54 360 5.0 10.0 0.00 0.11 0.00 62 1015.5
20260507141603 52 360 5.0 9.0 0.00 0.11 0.00 67 1015.5
20260507141502 52 360 6.0 9.0 0.00 0.11 0.00 67 1015.5
20260507140043 49 360 6.0 11.0 0.00 0.16 0.00 69 1015.7
20260507134527 47 360 6.0 11.0 0.00 0.16 0.00 73 1015.6
20260507133132 45 360 5.0 8.0 0.00 0.16 0.00 77 1015.7
20260507131548 43 360 5.0 8.0 0.00 0.16 0.00 80 1015.7
20260507130017 41 360 5.0 9.0 0.00 0.16 0.00 83 1015.6
20260507124539 39 360 5.0 9.0 0.00 0.16 0.00 85 1015.6
20260507123021 38 360 5.0 8.0 0.00 0.16 0.00 86 1015.7
20260507121611 37 360 5.0 8.0 0.00 0.16 0.00 86 1015.5
20260507120029 37 360 5.0 9.0 0.00 0.16 0.00 86 1015.6
20260507114510 37 360 4.0 6.0 0.00 0.16 0.00 86 1015.8
20260507113030 37 360 5.0 10.0 0.00 0.16 0.00 86 1016.0
20260507111507 37 360 5.0 10.0 0.00 0.16 0.00 87 1016.1
20260507110027 37 360 6.0 10.0 0.00 0.18 0.00 87 1016.3
20260507104506 37 360 5.0 8.0 0.00 0.18 0.00 87 1016.4
20260507103028 37 360 5.0 8.0 0.00 0.18 0.00 87 1016.5
20260507101514 37 360 6.0 10.0 0.00 0.18 0.00 88 1016.7
20260507100032 37 360 6.0 10.0 0.00 0.22 0.00 88 1017.0
20260507094508 38 360 7.0 10.0 0.00 0.22 0.00 88 1017.1
20260507093047 38 360 6.0 10.0 0.00 0.22 0.00 89 1017.1
20260507091509 37 360 5.0 11.0 0.00 0.22 0.00 90 1017.3
20260507090049 37 360 6.0 10.0 0.00 0.23 0.00 90 1017.4
20260507084531 36 360 5.0 10.0 0.00 0.23 0.00 91 1017.6
20260507083052 36 360 5.0 9.0 0.00 0.23 0.00 91 1017.8
20260507081533 36 360 5.0 9.0 0.00 0.23 0.00 91 1017.9
20260507080104 35 360 4.0 8.0 0.00 0.24 0.00 91 1018.1
20260507074532 35 360 4.0 8.0 0.00 0.24 0.00 91 1018.4
20260507073104 35 360 3.0 6.0 0.00 0.24 0.00 91 1018.6
20260507071531 35 360 4.0 5.0 0.00 0.24 0.00 91 1018.8
20260507070009 35 360 4.0 8.0 0.00 0.26 0.00 91 1019.0
20260507064543 35 360 4.0 6.0 0.00 0.26 0.00 91 1019.2
20260507063005 36 360 3.0 6.0 0.00 0.26 0.00 90 1019.4
20260507061559 36 360 3.0 5.0 0.00 0.26 0.00 90 1019.5
20260507061502 36 360 3.0 5.0 0.00 0.26 0.00 90 1019.5
20260507060037 36 360 2.0 6.0 0.00 0.32 0.26 91 1019.6
20260507054552 36 360 3.0 5.0 0.00 0.32 0.26 91 1019.9
20260507053035 36 360 3.0 4.0 0.00 0.32 0.26 91 1019.9
20260507051553 37 360 3.0 5.0 0.00 0.32 0.26 90 1020.1
20260507050034 38 360 3.0 5.0 0.00 0.42 0.26 90 1020.0
20260507044553 38 360 2.0 5.0 0.00 0.42 0.26 91 1020.1
20260507043040 38 360 1.0 4.0 0.00 0.42 0.26 91 1020.1
20260507041601 38 360 3.0 5.0 0.00 0.42 0.26 90 1020.5
20260507041502 38 360 3.0 5.0 0.00 0.42 0.26 90 1020.5
20260507040048 38 360 2.0 5.0 0.00 0.42 0.26 90 1020.6
20260507034516 39 360 3.0 4.0 0.00 0.42 0.26 90 1020.4
20260507033100 39 360 3.0 4.0 0.00 0.42 0.26 91 1020.6
20260507031520 39 360 1.0 3.0 0.00 0.42 0.26 90 1020.5
20260507030057 39 360 1.0 3.0 0.00 0.47 0.26 90 1020.5
20260507024524 39 360 0.0 2.0 0.00 0.47 0.26 89 1020.2
20260507023004 40 360 0.0 2.0 0.00 0.47 0.26 89 1020.4
20260507021530 40 360 0.0 2.0 0.00 0.47 0.26 88 1020.3
20260507020006 41 360 0.0 0.0 0.00 0.54 0.26 87 1020.2
20260507014547 42 360 0.0 0.0 0.00 0.54 0.26 86 1020.2
20260507013020 43 360 0.0 2.0 0.00 0.54 0.26 86 1020.1
20260507011549 43 360 1.0 3.0 0.00 0.54 0.26 86 1020.2
20260507010023 43 360 2.0 3.0 0.00 0.56 0.26 85 1020.2
20260507004559 44 360 2.0 5.0 0.00 0.56 0.26 85 1020.2
20260507003015 44 360 1.0 3.0 0.00 0.56 0.26 84 1020.1
20260507001552 44 360 2.0 5.0 0.00 0.56 0.26 85 1020.3
20260507000020 44 360 2.0 4.0 0.00 0.56 0.26 86 1020.1
20260506234504 44 360 2.0 4.0 0.01 0.56 0.26 87 1020.4
20260506233031 44 360 1.0 4.0 0.02 0.56 0.26 89 1020.4
20260506231559 44 360 2.0 5.0 0.03 0.56 0.26 91 1020.4
20260506230045 43 360 0.0 2.0 0.03 0.56 0.26 91 1020.4
20260506224517 42 360 0.0 3.0 0.02 0.56 0.25 89 1020.5
20260506223043 42 360 0.0 4.0 0.01 0.55 0.24 88 1020.7
20260506221518 43 360 3.0 6.0 0.00 0.54 0.23 86 1020.7
20260506220042 44 360 4.0 6.0 0.00 0.56 0.23 85 1020.6
20260506214540 44 360 2.0 4.0 0.00 0.56 0.23 85 1020.6
20260506213111 44 360 1.0 5.0 0.00 0.56 0.23 83 1020.8
20260506211524 45 360 1.0 4.0 0.00 0.56 0.23 84 1021.0
20260506210042 46 360 0.0 5.0 0.00 0.61 0.23 83 1021.1
20260506204544 46 360 1.0 6.0 0.00 0.61 0.23 82 1021.1
20260506203020 45 360 1.0 6.0 0.00 0.61 0.23 81 1021.1
20260506201555 44 360 1.0 5.0 0.00 0.61 0.23 84 1021.0
20260506200038 45 360 1.0 6.0 0.00 0.61 0.23 84 1021.1
20260506194509 45 360 1.0 5.0 0.00 0.61 0.23 86 1021.1
20260506193044 44 360 1.0 5.0 0.00 0.61 0.23 87 1021.1
20260506191556 44 360 2.0 4.0 0.00 0.61 0.23 87 1021.4
20260506190036 42 360 2.0 4.0 0.00 0.62 0.23 88 1021.7
20260506184537 42 360 1.0 4.0 0.01 0.62 0.23 91 1021.8
20260506183057 42 360 1.0 3.0 0.01 0.62 0.23 92 1022.0
20260506181555 41 360 0.0 4.0 0.01 0.62 0.23 94 1022.0
20260506180007 40 360 0.0 3.0 0.01 0.63 0.23 94 1022.2
20260506174529 40 360 0.0 2.0 0.01 0.62 0.22 94 1022.1
20260506173022 39 360 0.0 3.0 0.02 0.62 0.22 94 1022.1
20260506171507 39 360 0.0 2.0 0.04 0.62 0.22 94 1022.1
20260506170050 38 360 0.0 1.0 0.05 0.66 0.22 95 1022.1
20260506164507 38 360 0.0 3.0 0.04 0.65 0.21 95 1022.0
20260506163055 38 360 0.0 3.0 0.03 0.64 0.20 95 1021.8
20260506161531 38 360 1.0 4.0 0.01 0.62 0.18 95 1021.7
20260506160020 38 360 2.0 4.0 0.00 0.61 0.17 95 1021.5
20260506154558 37 360 0.0 3.0 0.00 0.61 0.17 95 1021.4
20260506153020 38 360 0.0 3.0 0.00 0.61 0.17 96 1021.1
20260506151552 37 360 1.0 4.0 0.01 0.61 0.17 96 1020.9
20260506150034 36 360 1.0 4.0 0.02 0.61 0.17 96 1020.9
20260506144556 36 360 1.0 4.0 0.04 0.61 0.17 96 1021.0